Home   Weather   Steinfurt   Past weeks

Flag for Germany Past Weather in Steinfurt, North Rhine-Westphalia, Germany — Yesterday and Last 2 Weeks

Now
27 °F

Ice fog.


Feels Like: 20 °F
Forecast: 20 / 31 °F
Wind: 6 mph from Southeast

Location: Rheine-Bentlage

Current Time: Jan 18, 2017 at 12:58:14 pm

Latest Report: Jan 18, 2017 at 11:20 am


Visibility: 3 mi

Pressure: 30.74 "Hg

Humidity: 93%

Dew Point: 25 °F

Location of SteinfurtLocation

Past Weather in Steinfurt — Graph

°F

Steinfurt Temperature Yesterday

Maximum temperature yesterday: 25 °F (at 12:20 am)
Minimum temperature yesterday: 23 °F (at 4:20 am)
Average temperature yesterday: 25 °F

High & Low Weather Summary for the Past Weeks

 TemperatureHumidityPressure
High46 °F (Jan 11, 1:20 pm)100% (Jan 4, 12:20 am)30.74 "Hg (Jan 4, 12:20 am)
Low18 °F (Jan 6, 4:20 am)51% (Jan 5, 3:20 pm)28.97 "Hg (Jan 13, 2:20 am)
Average33 °F87%30.10 "Hg
* Reported Jan 3 11:20 am — Jan 18 11:20 am, Steinfurt, Weather by CustomWeather, © 2017

Note: Actual official high and low records may vary slightly from our data, if they occured in-between our weather recording intervals... More about our weather records

Advertising

Steinfurt Weather History for the Previous 24 Hours

Scroll right to see more
 ConditionsComfort  
Time TempWeatherWind HumidityBarometerVisibility
11:20 am
Wed, Jan 18
27 °FIce fog.6 mph93%30.74 "Hg3 mi
10:20 am25 °FIce fog.6 mph100%30.74 "Hg2 mi
10:11 am25 °FIce fog.5 mph93%30.74 "Hg2 mi
9:20 am25 °FIce fog.2 mph93%30.72 "Hg1 mi
8:20 am25 °FIce fog.1 mph93%30.72 "Hg1 mi
7:48 am23 °FIce fog.5 mph100%30.72 "Hg1 mi
7:20 am23 °FIce fog.1 mph100%30.72 "Hg0 mi
6:20 am23 °FIce fog.5 mph93%30.69 "Hg0 mi
5:20 am23 °FCold.3 mph93%30.72 "HgN/A
4:20 am23 °FCold.2 mph100%30.72 "HgN/A
3:20 am23 °FCold.2 mph100%30.72 "HgN/A
2:20 am25 °FCold.No wind93%30.72 "HgN/A
1:20 am25 °FCold.2 mph93%30.72 "HgN/A
12:20 am25 °FCold.1 mph93%30.72 "HgN/A
11:20 pm
Tue, Jan 17
25 °FCold.3 mph93%30.72 "HgN/A
10:20 pm23 °FCold.3 mph93%30.72 "HgN/A
9:20 pm23 °FCold.2 mph100%30.72 "HgN/A
8:20 pm25 °FCold.3 mph93%30.72 "HgN/A
7:20 pm23 °FCold.1 mph100%30.69 "HgN/A
6:20 pm25 °FCold.1 mph93%30.69 "HgN/A
5:20 pm25 °FCold.1 mph93%30.69 "HgN/A
4:20 pm25 °FCold.1 mph93%30.66 "HgN/A
3:20 pm25 °FCold.1 mph93%30.66 "HgN/A
2:20 pm25 °FIce fog.3 mph93%30.66 "Hg1 mi
1:20 pm25 °FIce fog.2 mph93%30.66 "Hg1 mi
12:20 pm25 °FIce fog.2 mph93%30.66 "Hg1 mi
Weather by CustomWeather, © 2017

See weather overviewHow to use our weather pages